Weather Roundup
Issued by NWS

Home | Current Version | Previous Version | Text Only | Print | Product List | Glossary On
Versions: 1 2 3 4 5 6 7 8 9 10 11 12 13 14 15 16 17 18 19 20 21 22 23 24 25 26 27 28 29 30 31 32 33 34 35 36 37 38 39 40 41 42 43 44 45 46 47 48 49 50
000
NZUS93 KARX 191859
HRRWXR

CURRENT HOURLY OBSERVATIONS ACROSS
MUCH OF THE UPPER MISSISSIPPI VALLEY
NATIONAL WEATHER SERVICE LA CROSSE WI
100 PM CST FRI DEC 19 2014


...SOUTHEAST MINNESOTA...


CITY           SKY/WX    TMP DP  RH WIND       PRES   REMARKS
ROCHESTER      CLOUDY    27  21  78 S9        30.22F WCI  18
ROCHESTER/MAYO CLOUDY    28  20  72 SE8       30.22F WCI  19
WINONA         CLOUDY    30  23  74 SE5       30.27S WCI  25
AUSTIN         CLOUDY    27  23  86 S7        30.21F FOG     WCI  19
ALBERT LEA     PTSUNNY   28  27  93 S7        30.20F FOG     WCI  21
DODGE CENTER   CLOUDY    28  25  86 S9        30.20F WCI  20
PRESTON        CLOUDY    27  20  75 S6        30.22F WCI  21
OWATONNA       MOSUNNY   28  25  86 S7        30.20F FOG     WCI  21
FARIBAULT      CLOUDY    28  25  86 SE5       30.21F FOG     WCI  23
$$

...ELSEWHERE IN MINNESOTA...


CITY           SKY/WX    TMP DP  RH WIND       PRES   REMARKS
MINNEAPOLIS    CLOUDY    27  22  81 SE7       30.22F WCI  19
INTNL FALLS    LGT SNOW  24  19  81 S7        30.12F WCI  16
DULUTH         LGT SNOW  23  18  81 S6        30.16F WCI  16
RED WING       CLOUDY    28  21  74 SE7       30.24F WCI  21
REDWOOD FALLS  CLOUDY    33  28  81 S13       30.14F HAZE    WCI  24
MANKATO        CLOUDY    30  25  80 S9        30.19F WCI  22
WORTHINGTON    CLOUDY    30  27  86 S16       30.13F WCI  19
FAIRMONT       CLOUDY    30  23  74 S13       30.17F WCI  20
$$

...SOUTHWEST WISCONSIN...


CITY           SKY/WX    TMP DP  RH WIND       PRES   REMARKS
LA CROSSE      CLOUDY    30  20  66 S7        30.27F WCI  23
PRAIRIE DU CHI CLOUDY    28  19  69 SE5       30.28F WCI  23
BOSCOBEL       CLOUDY    30  18  60 E3        30.28F
LONE ROCK      NOT AVBL
PLATTEVILLE    CLOUDY    28  20  73 CALM      30.27F
FORT MC COY    MOSUNNY   29  18  64 S5        30.27F WCI  24
VIROQUA        CLOUDY    27  21  77 SE6       30.24F WCI  21
WIS DELLS      NOT AVBL
$$

...ELSEWHERE IN WISCONSIN...


CITY           SKY/WX    TMP DP  RH WIND       PRES   REMARKS
MILWAUKEE      CLOUDY    31  18  58 SW7       30.28F WCI  24
MADISON        CLOUDY    26  20  77 CALM      30.27F
GREEN BAY      SUNNY     28  21  75 S3        30.28S
EAU CLAIRE     NOT AVBL
BLACK RVR FLS  CLOUDY    29  19  66 CALM      30.26F
MEDFORD        CLOUDY    22  19  90 S7        30.22S WCI  13
WAUSAU         MOSUNNY   25  18  74 CALM      30.23F
WIS RAPIDS     CLOUDY    25  18  74 S7        30.27F WCI  17
MARSHFIELD     CLOUDY    24  20  84 SE6       30.24S WCI  17
RICE LAKE      CLOUDY    26  20  80 S7        30.24F WCI  18
$$

...NORTHEAST IOWA...


CITY           SKY/WX    TMP DP  RH WIND       PRES   REMARKS
DECORAH        CLOUDY    27  19  74 S7        30.23F WCI  19
MASON CITY     CLOUDY    30  25  81 SE8       30.22F WCI  22
CHARLES CITY   PTSUNNY   28  25  86 SE7       30.24F WCI  21
OELWEIN        CLOUDY    28  21  74 S8        30.25F WCI  20
$$

...ELSEWHERE IN IOWA...


CITY           SKY/WX    TMP DP  RH WIND       PRES   REMARKS
DES MOINES     CLOUDY    33  27  78 S8        30.23F WCI  26
IOWA CITY      SUNNY     32  20  61 SE6       30.28F WCI  26
FORT DODGE     CLOUDY    30  27  86 S8        30.20F WCI  23
$$

...NORTHERN ILLINOIS...


CITY           SKY/WX    TMP DP  RH WIND       PRES   REMARKS
CHICAGO-OHARE  CLOUDY    30  21  69 N6        30.27F WCI  24
CHICAGO-MIDWAY CLOUDY    34  23  64 CALM      30.28F
MOLINE         SUNNY     31  20  63 CALM      30.27F
ROCKFORD       CLOUDY    28  21  75 N3        30.30F
PEORIA         SUNNY     34  19  54 NW5       30.28F WCI  30
$$

NOTE: "FAIR" INDICATES FEW OR NO CLOUDS BELOW 12,000 FEET WITH NO
SIGNIFICANT WEATHER AND/OR OBSTRUCTIONS TO VISIBILITY. WIND
SPEEDS ARE IN MILES-PER-HOUR.



USA.gov is the U.S. government's official web portal to all federal, state and local government web resources and services.